Regional Weather Roundup
Issued by NWS

Home | Current Version | Previous Version | Text Only | Print | Product List | Glossary On
Versions: 1 2 3 4 5 6 7 8 9 10 11 12 13 14 15 16 17 18 19 20 21 22 23 24 25 26 27 28 29 30 31 32 33 34 35 36 37 38 39 40 41 42 43 44 45 46 47 48 49 50
000
ASUS43 KDTX 272310
RWRMI
MICHIGAN HOURLY REGIONAL WEATHER ROUNDUP
NATIONAL WEATHER SERVICE DETROIT/PONTIAC MI
700 PM EDT SUN JUL 27 2014

NOTE: "FAIR" INDICATES FEW OR NO CLOUDS BELOW 12,000 FEET WITH NO
SIGNIFICANT WEATHER AND/OR OBSTRUCTION TO VISIBILITY.

MIZ047>049-052>055-059>063-066>070-074>076-081>083-280000-
SOUTHEAST LOWER MICHIGAN

CITY           SKY/WX    TMP DP  RH WIND       PRES   REMARKS
ADRIAN         CLOUDY    69  64  84 N7        29.67R
ALMA           CLOUDY    63  60  91 N6        29.71R
ANN ARBOR      TSTM      65  60  84 NW18G31   29.71R
BAD AXE        HVY RAIN  61  60  96 CALM      29.71F
CARO           RAIN      63  62  97 NE10      29.66F
DETROIT CITY   LGT RAIN  69  63  81 CALM      29.62F
DETROIT        TSTM      69  66  90 SW7       29.66R
FLINT          TSTM      63  56  78 NE10      29.71R
GROSSE ILE     RAIN      68  64  88 W9        29.64R
HILLSDALE      LGT RAIN  70  67  89 W7        29.69R
HOWELL         RAIN      61  58  91 E7G21     29.73R

CITY           SKY/WX    TMP DP  RH WIND       PRES   REMARKS
JACKSON        PTSUNNY   67  59  75 NW9G18    29.67S
LAMBERTVILLE   CLOUDY    70  63  78 N10       29.65R
LANSING        TSTM      63  58  83 NE10      29.69R
LAPEER         CLOUDY    62  57  86 N13       29.67F
MASON          CLOUDY    62  59  89 NE12G23   29.70R
MONROE         HVY RAIN  66  63  88 N9        29.64R
MT. CLEMENS    PTSUNNY   67  60  77 N26G33    29.65R
PONTIAC        TSTM     N/A N/A N/A N12       29.69R
PORT HOPE        N/A     63  60  90 E7        29.68S
PORT HURON     HVY RAIN  63  61  94 NW15G23   29.71R
TRI CITIES     LGT RAIN  65  61  87 E13       29.65F
TROY           CLOUDY    66  63  92 N20G25    29.70R
SAGINAW HB     LGT RAIN  63  63 100 E12G20    29.64F
$$
MIZ043>046-050>051-056>058-064>065-071>073-077>080-280000-
SOUTHWEST LOWER MICHIGAN

CITY           SKY/WX    TMP DP  RH WIND       PRES   REMARKS
BATTLE CREEK   PTSUNNY   70  64  81 NW12      29.70R
BENTON HARBOR  MOSUNNY   69  58  67 NW7       29.73R
BIG RAPIDS     PTSUNNY   64  58  79 E3        29.69F
COLDWATER      PTSUNNY   75  60  58 NW17G26   29.70R
FREMONT        MOCLDY    73  55  52 N10       29.70R
HOLLAND        MOSUNNY   69  61  75 NW12G23   29.72R
GRAND RAPIDS   CLOUDY    69  62  78 NW12      29.69R
IONIA          RAIN      66  59  79 N6        29.71R
KALAMAZOO      PTSUNNY   70  61  73 NW9       29.70S
LUDINGTON      FOG       61  59  93 NW10      29.72S VSB 1
MARSHALL       PTSUNNY   67  63  85 W12G18    29.69R
MOUNT PLEASANT LGT RAIN  64  61  91 CALM      29.70R
MUSKEGON       PTSUNNY   73  61  65 W9        29.70R
SOUTH HAVEN    MOSUNNY   69  62  78 NW9G16    29.72S
$$
MIZ016>042-280000-
NORTHERN LOWER MICHIGAN

CITY           SKY/WX    TMP DP  RH WIND       PRES   REMARKS
BEAVER ISLAND  CLOUDY    63  59  87 N8        29.79R
BELLAIRE       CLOUDY    69  62  80 N5        29.72R
CADILLAC       LGT RAIN  62  62  98 N5        29.69F
CHARLEVOIX     CLOUDY    66  63  88 N13G21    29.78R
FRANKFORT      CLOUDY    67  60  78 N10       29.73R
GAYLORD        CLOUDY    64  59  83 N9        29.74S
GRAYLING       CLOUDY    65  63  94 CALM      29.73S
HARBOR SPRINGS LGT RAIN  67  60  77 N7        29.75R
HOUGHTON LAKE  CLOUDY    63  60  90 NE8       29.72R
MANISTEE       PTSUNNY   70  63  78 NW8       29.71R
OSCODA         CLOUDY    63  61  92 NE9       29.68S
PELLSTON       LGT RAIN  65  62  90 N7        29.76R
ROGERS CITY    CLOUDY    64  62  96 N7        29.73F
TRAVERSE CITY  CLOUDY    68  62  81 N9        29.71R
$$
MIZ007>008-015-280000-
EASTERN UPPER MICHIGAN

CITY           SKY/WX    TMP DP  RH WIND       PRES   REMARKS
KINROSS        PTSUNNY   68  61  77 NW8       29.77R
MACKINAC ISLAN CLOUDY    63  63 100 N8        29.76R
NEWBERRY       CLOUDY    63  52  67 NW13G21   29.80R
S. S. MARIE    CLOUDY    69  55  60 NE5       29.76R
MUNISING         N/A     57  49  74 NW9G18    29.86R
$$
MIZ004>006-011>014-085-280000-
CENTRAL UPPER MICHIGAN

CITY           SKY/WX    TMP DP  RH WIND       PRES   REMARKS
MANISTIQUE     CLOUDY    63  55  77 N16       29.80R
ESCANABA       CLOUDY    63  52  67 N16       29.84R
MENOMINEE      MOSUNNY   64  54  68 N15G26    29.82R
SAWYER-GWINN   SUNNY     61  50  67 N20G25    29.89R
$$
MIZ001>003-009>011-084-280000-
WESTERN UPPER MICHIGAN

CITY           SKY/WX    TMP DP  RH WIND       PRES   REMARKS
IRON MOUNTAIN  MOSUNNY   66  50  56 N16G28    29.89R
HOUGHTON       CLOUDY    63  50  62 N12       29.96R
COPPER HARBOR    N/A     56  48  74 N13       29.94R
IRONWOOD       MOSUNNY   63  54  72 N6        29.99R
$$

ABBREVIATIONS USED IN REMARKS
   TC - TEMPERATURE IN CELSIUS
  WCI - WIND CHILL INDEX
   HX - HEAT INDEX
  VSB - VISIBILITY




USA.gov is the U.S. government's official web portal to all federal, state and local government web resources and services.